アトラス彗星

C/2018 A3 ( ATLAS )

English version
Home page
Updated on April 25, 2020

---------------------------------------------------------------------

・ プロフィール

発見日 2018年1月10日
発見光度 18.7等
発見者 Asteroid Terrestrial-impact Last Alert System (ATLAS) search program

・ 写真集

・ 軌道要素

Epoch 2018 Dec. 28.0 TT = JDT 2458480.5
T 2019 Jan. 12.86334 TT                                 Rudenko
q   3.2767172            (2000.0)            P               Q
z  +0.0020063      Peri.   86.42655     -0.24776727     +0.95551871
 +/-0.0000004      Node   194.27956     +0.40380096     +0.25195804
e   0.9934260      Incl.  139.56199     +0.88065666     +0.15330079
From 1460 observations 2018 Jan. 10-2020 Jan. 21, mean residual 0".5.

・ 星図

・ 光度変化

        m1 = 8.0 + 5 logΔ + 10.0 log r

---------------------------------------------------------------------

軌道要素はM.P.E.C. 2020-G65に掲載されたものです。
星図はステラナビゲータ Ver.10 (アストロアーツ) で作成したものです。
光度グラフはComet for Windowsで作成したものです。

---------------------------------------------------------------------

Copyright(C) Seiichi Yoshida (comet@aerith.net). All rights reserved.